Location: Asheville, NC
(35.6000°N, 82.5500°W)
Time: 02:25:06
(UTC-04:00)

Vanguard 2 - Pass Details

Date: 16 March 2018
Orbit: 553 x 2939 km, 32.9° (Epoch: 20 June)

Event Time Altitude Azimuth Distance (km) Brightness Sun altitude
Rises 08:34:49 0° 197° (SSW) 4,470 11.4 10.4°
Reaches altitude 10° 08:38:13 10° 183° (S) 3,845 11.2 11.0°
Maximum altitude 08:46:14 24° 134° (SE) 3,553 12.0 12.6°
Drops below altitude 10° 08:57:03 10° 88° (E) 5,339 13.8 14.8°
Sets 09:02:53 0° 77° (ENE) 6,614 13.5 16.0°
